Terminal Aerodrome Forecast
Issued by NWS Honolulu, HI

Home | Current Version | Previous Version | Text Only | Print | Product List | Glossary On
Versions: 1 2 3 4 5 6 7 8 9 10 11 12 13 14 15 16 17 18 19 20 21 22 23 24 25 26 27 28 29 30 31 32 33 34 35 36 37 38 39 40 41 42 43 44 45 46
000
FTPA31 PHFO 010800 AAA
TAFHNL
TAF AMD
PHNL 010857Z 0109/0212 06011KT P6SM FEW025 SCT035 SCT060
     FM012000 06017G24KT P6SM SCT025 BKN040
     FM020600 06012KT P6SM VCSH SCT025 BKN040=

USA.gov is the U.S. government's official web portal to all federal, state and local government web resources and services.